STARLINK-3780, 52278

Orbit data source: Space-Track

STARLINK-3780, 52278 is a payload satellite owned by SpaceX/Seattle (US) in LEO that was launched on Thu, 21 Apr 2022 UTC via an FALCON 9 launch vehicle from the Air Force Eastern Test Range (AFETR). Payload-class satellites include a variety of spacecraft equipped with specific instruments for various scientific and technological missions. These include communications satellites like Starlink; space stations such as the ISS; scientific satellites like the Hubble; Earth observation satellites from companies like Planet Labs, Umbra, and HawkEye 360; GPS; miniature CubeSats for education and research; and military/defense satellites.

Loading next visibility...
Identifier
52278, 2022-041T
Orbit
LEO
Country
Flag of USUS
Related business
Manufacturer
SpaceX/Seattle
Mission
Operational Commercial Communications
Bus & Motor
STARLINK, Unknown motor
Mass
297 kg wet, ~275 kg dry
Launch date (UTC)
2022-04-21 (4 years ago)
Launch vehicle
FALCON 9
Launch site
Air Force Eastern Test Range (AFETR)
Object type
Payload
Rocket body
Debris
Shape & HBR
Box + 1 Pan, 10.1 m
Radar Cross Section
11.087 m², Large (>1 m²)

Expand to show TLE details & history
Last TLE update: 1 day ago

TLE from 1 day ago
0 STARLINK-3780
1 52278U 22041T   26129.47614787 -.00002617  00000-0 -14635-3 0  9997
2 52278  53.2160 196.2364 0001176  91.1770 268.9357 15.08845732223543
Epoch: 2026-05-09T11:25Z
TLE epoch observation values (Epoch: 2026-05-09T11:25:39.175Z)
Latitude
-0.00004°
Longitude
157.53011°
Altitude
540.638 km
Speed
7.593 km/s
True Right ascension
13h 04m 56s
True Declination
0° 00' 00"
Sunlit
Object was in full shadow at epoch
Visualization orbit readout
Latitude
Unknown
Longitude
Unknown
Altitude
Unknown
Speed
Unknown
Apparent Right ascension
Unknown
Apparent Declination
Unknown
Sunlit
N/A
Visualization observer readout
Local Sidereal Time
19:47:46
Azimuth
Unknown
Elevation
Unknown
Doppler factor
Unknown
Orbital elements
Apogee altitude
540.785 km
Perigee altitude
539.157 km
Semi-major axis
6,918.108 km
Eccentricity
0.00012
Inclination
53.216°
RAAN
196.2364°
Arg. of periapsis
91.177°
True anomaly
268.92223°
Mean anomaly
268.9357°
Eccentric anomaly
268.92896°
Mean motion
3.77192 °/min
Orbital period
95.44 mins
BSTAR
-0.00014635
Loading maneuver chart data...
Computing Atmospheric mass density...
Loading historical data...
Loading historical data...
Loading historical data...
Loading historical data...
Loading historical data...
Loading historical data...
Loading historical data...

Documentation

Showing up to 5 results
|